TimeEDT,TemperatureF,Dew PointF,Humidity,Sea Level PressureIn,VisibilityMPH,Wind Direction,Wind SpeedMPH,Gust SpeedMPH,PrecipitationIn,Events,Conditions,WindDirDegrees,DateUTC
12:53 AM,30.0,25.0,82,30.10,10.0,South,3.5,-,N/A,,Overcast,180,2013-10-26 04:53:00
1:53 AM,32.0,26.1,79,30.08,10.0,Calm,Calm,-,N/A,,Overcast,0,2013-10-26 05:53:00
2:53 AM,34.0,26.1,73,30.04,10.0,Calm,Calm,-,N/A,,Overcast,0,2013-10-26 06:53:00
3:53 AM,33.1,28.0,82,30.02,10.0,South,3.5,-,N/A,,Mostly Cloudy,180,2013-10-26 07:53:00
4:53 AM,35.1,28.9,78,30.00,10.0,South,4.6,-,N/A,,Overcast,190,2013-10-26 08:53:00
5:53 AM,39.0,35.1,86,30.00,6.0,SW,8.1,-,0.01,Rain,Light Rain,220,2013-10-26 09:53:00
6:12 AM,37.4,35.6,93,29.98,8.0,SW,11.5,18.4,0.01,Rain,Light Rain,220,2013-10-26 10:12:00
6:53 AM,37.9,35.1,89,29.98,7.0,SSW,10.4,-,0.04,Rain,Light Rain,210,2013-10-26 10:53:00
7:38 AM,35.6,33.8,93,29.95,7.0,SSW,10.4,-,0.02,Rain,Light Rain,210,2013-10-26 11:38:00
7:48 AM,35.6,33.8,93,29.95,6.0,SSW,8.1,-,0.03,Rain,Light Rain,210,2013-10-26 11:48:00
7:53 AM,36.0,33.1,89,29.97,5.0,SSW,6.9,-,0.03,Rain,Light Rain,210,2013-10-26 11:53:00
8:05 AM,35.6,33.8,93,29.95,4.0,SSW,8.1,-,0.01,Rain,Light Rain,200,2013-10-26 12:05:00
8:45 AM,35.6,35.6,100,29.93,7.0,South,6.9,-,0.03,Rain,Light Rain,190,2013-10-26 12:45:00
8:53 AM,37.0,34.0,89,29.95,8.0,South,8.1,-,0.03,Rain,Light Rain,190,2013-10-26 12:53:00
9:34 AM,37.4,35.6,93,29.91,10.0,South,6.9,-,0.00,Rain,Light Rain,190,2013-10-26 13:34:00
9:53 AM,37.9,36.0,93,29.91,10.0,South,6.9,-,0.00,,Overcast,190,2013-10-26 13:53:00
10:53 AM,39.9,36.0,86,29.86,9.0,South,11.5,-,0.01,Rain,Light Rain,180,2013-10-26 14:53:00
11:53 AM,39.9,36.0,86,29.83,10.0,South,12.7,-,0.00,,Overcast,190,2013-10-26 15:53:00
12:05 PM,41.0,35.6,81,29.81,10.0,South,12.7,20.7,N/A,,Mostly Cloudy,190,2013-10-26 16:05:00
12:53 PM,42.1,34.0,73,29.80,10.0,SSW,17.3,27.6,N/A,,Overcast,200,2013-10-26 16:53:00
1:18 PM,42.8,33.8,70,29.77,10.0,SSW,20.7,33.4,N/A,,Overcast,200,2013-10-26 17:18:00
1:53 PM,42.1,34.0,73,29.78,10.0,SSW,24.2,29.9,N/A,,Overcast,200,2013-10-26 17:53:00
2:53 PM,41.0,34.0,76,29.77,10.0,SSW,19.6,27.6,0.00,Rain,Light Rain,200,2013-10-26 18:53:00
3:53 PM,42.1,33.1,70,29.76,10.0,SSW,18.4,32.2,0.00,,Overcast,210,2013-10-26 19:53:00
4:53 PM,41.0,33.1,73,29.77,10.0,SSW,18.4,32.2,0.00,Rain,Light Rain,200,2013-10-26 20:53:00
5:53 PM,39.9,34.0,79,29.77,10.0,SSW,20.7,26.5,0.00,Rain,Light Rain,210,2013-10-26 21:53:00
6:09 PM,39.2,35.6,87,29.75,10.0,SSW,21.9,31.1,0.00,Rain,Light Rain,210,2013-10-26 22:09:00
6:53 PM,39.9,35.1,83,29.78,10.0,SSW,18.4,28.8,0.00,,Overcast,210,2013-10-26 22:53:00
7:34 PM,41.0,35.6,81,29.76,10.0,SSW,16.1,21.9,0.00,Rain,Light Rain,210,2013-10-26 23:34:00
7:53 PM,41.0,36.0,82,29.76,10.0,SSW,16.1,26.5,0.00,Rain,Light Rain,210,2013-10-26 23:53:00
8:53 PM,42.1,36.0,79,29.76,10.0,SSW,18.4,27.6,0.00,,Overcast,210,2013-10-27 00:53:00
9:53 PM,41.0,36.0,82,29.76,10.0,SSW,12.7,25.3,0.00,Rain,Light Rain,210,2013-10-27 01:53:00
10:53 PM,41.0,36.0,82,29.75,10.0,SSW,16.1,-,0.00,Rain,Light Rain,210,2013-10-27 02:53:00
11:53 PM,41.0,37.0,86,29.74,9.0,SSW,11.5,19.6,0.00,Rain,Light Rain,200,2013-10-27 03:53:00